Zurück zum Katalog

STARLINK-4285

AktivKommunikationVLEO
NORAD 52991·PAYLOAD·🇺🇸 United States

Gestartet Jul 7, 2022 von Cape Canaveral Space Force Station

Loading…

Nächste Überflüge (nächste 24 Stunden)

TLE

AktuellSource: CelesTrak SupGP

Epoche: Sep 14, 2026, 20:53 UTC

1 52991C 22076F   26257.87062500 -.00029875  00000+0 -88291-3 0  2573
2 52991  53.1570 320.3831 0001386  80.7424 271.8956 15.34396687    13

Verfolge STARLINK-4285 in Echtzeit mit AllMySat

Download on the App Store